[[{"header":{"parameterUnit":"m.s-1","parameterCategory":1,"la1":30.2991,"la2":30.254,"lo1":-89.0895,"lo2":-89.0444,"dy":0.0017,"dx":0.0017,"nx":28,"ny":28,"refTime":"2026-02-15T09:00:00:Z","depth":0,"parameterNumber":2,"parameterNumberName":"U-component_of_WINDS"},"data":[0,0,0,0,0,0,0,0,0,0,0,0,0,0,0,0,0,0,0,0,0,0,0,0,0,0,0,0,0,0,0,0,0,0,0,0,0,0,0,0,0,0,0,0,0,0,0,0,0,0,0,0,0,0,0,0,0,0,7.2566,7.2566,0,7.2615,7.2615,7.2616,7.2563,7.2561,7.2559,7.2557,7.2611,7.2614,7.2617,0,0,0,0,0,0,0,0,0,0,0,0,0,7.2431,7.2434,7.2565,7.2566,7.2567,7.2615,7.2615,7.2616,7.2564,7.2561,7.2559,7.2556,7.261,7.2614,7.2618,0,0,0,0,0,0,0,0,0,0,0,0,0,7.2486,7.2435,7.2565,7.2546,7.2545,7.2614,7.2615,7.2616,7.2564,7.2561,7.2558,7.2555,7.2609,7.2613,7.2618,7.271,0,0,7.2633,7.2636,0,0,0,0,0,0,0,0,7.2483,7.2491,7.2549,7.2548,7.2547,7.258,7.2587,7.2648,7.2565,7.2557,7.2557,7.2554,7.2603,7.2608,7.2624,7.2712,7.2714,7.2634,7.2637,7.2639,7.264,0,0,0,0,0,0,0,7.2479,7.2488,7.2585,7.2549,7.2548,7.2537,7.2541,7.2598,7.2597,7.2558,7.2554,7.256,7.2602,7.262,7.2625,7.2715,7.2634,7.2638,7.2641,7.2643,7.2883,7.2886,0,0,0,0,0,0,7.2477,7.2485,7.2583,7.2586,7.2506,7.2542,7.2547,7.2572,7.2596,7.2596,7.2563,7.2558,7.2613,7.262,7.2627,7.2737,7.2639,7.2644,7.2646,7.288,7.2884,7.2888,0,0,0,0,0,0,7.2474,7.2486,7.2581,7.2535,7.2546,7.2547,7.2576,7.2575,7.2592,7.26,7.26,7.2581,7.2611,7.262,7.269,7.2738,7.2646,7.265,7.2876,7.2881,7.2886,7.2956,0,0,0,0,0,0,7.247,7.2485,7.2519,7.2536,7.2549,7.2642,7.2579,7.2578,7.2601,7.2594,7.2617,7.2617,7.2609,7.2683,7.2695,7.2743,7.2654,7.2871,7.2878,7.2884,7.2949,7.2963,7.2974,0,0,0,0,0,7.2466,7.2537,7.2521,7.2533,7.2591,7.2645,7.2652,7.264,7.2605,7.2639,7.2644,7.2617,7.2731,7.269,7.2703,7.2754,7.2868,7.2876,7.2884,7.2944,7.296,7.2974,0,0,0,0,0,0,7.2525,7.2539,7.2521,7.2599,7.2621,7.2636,7.2679,7.2658,7.2691,7.2684,7.2668,7.2674,7.2748,7.2758,7.2713,7.2845,7.2794,7.2805,7.2835,7.2851,7.2863,7.2859,7.2658,0,0,0,0,0,7.2547,7.2589,7.2599,7.2668,7.268,7.2678,7.2701,7.269,7.2712,7.2721,7.2732,7.2756,7.2797,7.2825,7.2863,7.2951,7.2956,7.2993,7.3005,7.3015,7.3024,7.3074,7.309,7.2913,7.2913,7.2912,0,0,7.2594,7.2606,7.2633,7.268,7.2695,7.2741,7.2686,7.2735,7.2769,7.2729,7.2795,7.2805,7.2831,7.291,7.2946,7.2921,7.3075,7.3025,7.3033,7.3037,7.3083,7.31,7.3115,7.2918,7.2917,7.2916,0,0,7.2701,7.2714,7.2773,7.2791,7.2815,7.2814,7.2828,7.2847,7.2851,7.2917,7.2889,7.293,7.3001,7.3021,7.3041,7.3159,7.3136,7.3173,7.3237,7.3286,7.33,7.3312,7.3355,7.337,7.3182,7.3182,7.3182,0,7.2755,7.2821,7.2806,7.2859,7.2881,7.2847,7.2908,7.2926,7.2962,7.2979,7.295,7.304,7.3055,7.314,7.3169,7.3186,7.3203,7.3169,7.3298,7.3311,7.3322,7.3363,7.3379,7.3186,7.3186,7.3185,7.3185,0,7.2887,7.2934,7.2979,7.3014,7.3042,7.3098,7.3094,7.3124,7.3111,7.3114,7.3183,7.32,7.3242,7.3262,7.325,7.3346,7.333,7.33,7.3249,7.3344,7.3382,7.3397,7.3193,7.3191,7.319,7.3189,0,0,7.3031,7.306,7.3077,7.3093,7.3119,7.3156,7.3212,7.3252,7.3279,7.3306,7.3353,7.3416,7.3389,7.3412,7.3402,7.3445,7.3539,7.341,7.341,7.3434,7.3647,7.3669,7.3687,7.3524,7.3527,7.3529,7.3645,0,7.314,7.3235,7.3225,7.3317,7.3361,7.3331,7.338,7.3402,7.3407,7.3446,7.3451,7.3496,7.3457,7.347,7.3511,7.3519,7.3581,7.351,7.3569,7.3571,7.3563,7.3707,7.373,7.3838,7.366,7.3662,7.3664,0,7.3278,7.331,7.3406,7.3427,7.3445,7.3489,7.3527,7.3564,7.359,7.359,7.3617,7.3601,7.3659,7.3608,7.3689,7.3641,7.3665,7.3673,7.3677,7.3681,7.3623,7.3716,7.3872,7.3888,7.3687,7.3686,7.3684,0,7.3374,7.3441,7.3508,7.3523,7.3549,7.3581,7.3594,7.3617,7.3642,7.3676,7.3693,7.3733,7.3756,7.3788,7.3785,7.3747,7.3868,7.3816,7.3871,7.3872,7.3897,7.3895,7.406,7.3913,7.3913,7.3913,7.3913,0,7.3496,7.3556,7.3552,7.3592,7.366,7.3649,7.3716,7.3725,7.3747,7.379,7.3767,7.3809,7.3802,7.3844,7.3842,7.3911,7.3921,7.3924,7.3923,7.3926,7.3925,7.3941,7.3933,7.3917,7.3916,7.3915,7.3915,0,7.3614,7.3613,7.3684,7.3704,7.371,7.3759,7.3776,7.3816,7.382,7.3875,7.3888,7.3894,7.3942,7.3942,7.3998,7.3997,7.4081,7.4071,7.4072,7.407,7.4126,7.412,7.4305,7.4329,7.4167,7.4169,7.417,0,7.3691,7.3737,7.3762,7.3789,7.3804,7.3848,7.3874,7.3866,7.3895,7.3929,7.3965,7.4012,7.4048,7.4129,7.4139,7.4182,7.4173,7.4235,7.418,7.4182,7.4175,7.4172,7.4177,7.4246,7.4248,7.4249,7.425,0,7.3829,7.3827,7.3865,7.3905,7.3937,7.3967,7.3995,7.4019,7.4015,7.4049,7.4098,7.4127,7.4184,7.4231,7.4274,7.4289,7.427,7.4268,7.4283,7.4287,7.4285,7.4287,7.4101,7.4264,7.4262,7.4261,7.4261,7.426,7.3929,7.3969,7.3993,7.4037,7.4058,7.4085,7.4124,7.4133,7.4173,7.4218,7.4212,7.4268,7.4295,7.435,7.4368,7.4413,7.4391,7.4413,7.4419,7.4424,7.4431,7.4279,7.4421,7.442,7.442,7.442,7.4419,0,7.4066,7.4081,7.4121,7.4162,7.4197,7.4176,7.4207,7.4238,7.4286,7.4313,7.435,7.4408,7.4454,7.4469,7.4514,7.4547,7.454,7.456,7.4557,7.4561,7.4447,7.4429,7.4565,7.4565,7.4565,7.4565,7.4565,7.4565,7.4141,7.4208,7.4209,7.4287,7.4301,7.4354,7.4374,7.44,7.4421,7.4486,7.4524,7.4533,7.4556,7.4603,7.4646,7.4649,7.4667,7.469,7.469,7.4583,7.4569,7.4555,7.4538,7.4694,7.4694,7.48,7.4801,7.4802]},{"header":{"parameterUnit":"m.s-1","parameterCategory":1,"la1":30.2991,"la2":30.254,"lo1":-89.0895,"lo2":-89.0444,"dy":0.0017,"dx":0.0017,"nx":28,"ny":28,"refTime":"2026-02-15T09:00:00:Z","depth":0,"parameterNumber":3,"parameterNumberName":"V-component_of_WINDS"},"data":[0,0,0,0,0,0,0,0,0,0,0,0,0,0,0,0,0,0,0,0,0,0,0,0,0,0,0,0,0,0,0,0,0,0,0,0,0,0,0,0,0,0,0,0,0,0,0,0,0,0,0,0,0,0,0,0,0,0,2.7531,2.7532,0,2.7639,2.764,2.7642,2.7648,2.7647,2.7645,2.7644,2.7757,2.7761,2.7766,0,0,0,0,0,0,0,0,0,0,0,0,0,2.7331,2.7335,2.753,2.7532,2.7533,2.7639,2.764,2.7642,2.7648,2.7647,2.7645,2.7644,2.7756,2.7761,2.7766,0,0,0,0,0,0,0,0,0,0,0,0,0,2.7427,2.7336,2.753,2.7549,2.7552,2.7639,2.764,2.7642,2.7648,2.7646,2.7645,2.7643,2.7754,2.776,2.7767,2.7843,0,0,2.7786,2.7788,0,0,0,0,0,0,0,0,2.7421,2.7434,2.7545,2.7548,2.7551,2.7628,2.7612,2.771,2.7649,2.7612,2.7644,2.7642,2.7716,2.7725,2.775,2.7848,2.7853,2.7786,2.779,2.7793,2.7795,0,0,0,0,0,0,0,2.7415,2.7429,2.7573,2.7546,2.755,2.7553,2.7564,2.763,2.7673,2.7615,2.7615,2.7628,2.7717,2.7744,2.7752,2.7855,2.7786,2.7792,2.7796,2.7798,2.8024,2.8026,0,0,0,0,0,0,2.7404,2.7424,2.757,2.7577,2.748,2.7558,2.7571,2.7605,2.7672,2.7681,2.763,2.7628,2.7734,2.7745,2.7756,2.7852,2.7793,2.7799,2.7802,2.8022,2.8024,2.8027,0,0,0,0,0,0,2.74,2.7417,2.7566,2.7501,2.752,2.7563,2.7602,2.7608,2.7635,2.7684,2.7691,2.7649,2.7733,2.7748,2.7822,2.7856,2.7801,2.7807,2.8019,2.8022,2.8026,2.8042,0,0,0,0,0,0,2.7394,2.7415,2.7444,2.7501,2.7523,2.7628,2.7604,2.7612,2.7645,2.7644,2.7703,2.7712,2.7733,2.7812,2.7828,2.7864,2.7812,2.8016,2.8021,2.8024,2.8039,2.8046,2.8052,0,0,0,0,0,2.7387,2.7444,2.7445,2.7463,2.7559,2.763,2.7643,2.7665,2.7648,2.7678,2.771,2.771,2.7849,2.782,2.7838,2.7875,2.8014,2.8019,2.8024,2.8036,2.8044,2.8051,0,0,0,0,0,0,2.7389,2.7452,2.7454,2.7531,2.7575,2.7631,2.7669,2.7673,2.7723,2.772,2.7747,2.776,2.7834,2.7862,2.7828,2.7954,2.793,2.7939,2.7933,2.7941,2.7948,2.794,2.7817,0,0,0,0,0,2.7399,2.745,2.7502,2.7566,2.7588,2.7625,2.7656,2.767,2.7717,2.7736,2.7773,2.7819,2.7874,2.7909,2.7962,2.8043,2.8057,2.8078,2.8084,2.8089,2.8097,2.8144,2.8155,2.8043,2.8043,2.8043,0,0,2.7419,2.746,2.7491,2.7567,2.7603,2.7657,2.764,2.7697,2.7738,2.7744,2.7817,2.7846,2.79,2.7978,2.8014,2.8004,2.8131,2.8096,2.8099,2.8104,2.815,2.8161,2.817,2.8047,2.8046,2.8046,0,0,2.7484,2.7519,2.7577,2.7613,2.7668,2.7692,2.7706,2.7762,2.7782,2.7855,2.7862,2.7911,2.8004,2.8042,2.8074,2.8156,2.8159,2.8172,2.8206,2.8252,2.8261,2.8269,2.83,2.831,2.818,2.818,2.818,0,2.7502,2.7583,2.7606,2.7664,2.7698,2.7707,2.7766,2.7801,2.787,2.7894,2.7881,2.7999,2.8036,2.8125,2.8145,2.817,2.8188,2.8166,2.8257,2.8266,2.8274,2.8303,2.8315,2.8181,2.8181,2.8181,2.8181,0,2.7604,2.766,2.77,2.7767,2.7806,2.7864,2.7897,2.7934,2.7945,2.7971,2.8047,2.8091,2.8154,2.8176,2.8187,2.8268,2.826,2.8252,2.8228,2.8285,2.8314,2.8325,2.8183,2.8183,2.8182,2.8182,0,0,2.7672,2.7753,2.7767,2.7799,2.7861,2.7905,2.7964,2.8026,2.8058,2.8106,2.8158,2.8237,2.8231,2.8267,2.8283,2.8323,2.8388,2.8311,2.8312,2.8325,2.8481,2.8487,2.85,2.839,2.8392,2.8394,2.8477,0,2.7745,2.785,2.7874,2.7965,2.8018,2.8029,2.8081,2.8125,2.8152,2.8202,2.8232,2.8289,2.8275,2.8297,2.8338,2.8371,2.842,2.8365,2.844,2.8442,2.8427,2.8515,2.8521,2.8597,2.8488,2.849,2.8492,0,2.7843,2.7894,2.7991,2.8048,2.8071,2.8117,2.8177,2.8224,2.8276,2.8293,2.8334,2.8346,2.841,2.8384,2.8474,2.8436,2.8468,2.849,2.8493,2.8502,2.8471,2.8527,2.8622,2.8634,2.8509,2.8508,2.8506,0,2.7884,2.7977,2.8048,2.8074,2.8142,2.8175,2.8205,2.8255,2.8291,2.8344,2.8368,2.8427,2.846,2.8506,2.8535,2.8512,2.8623,2.8598,2.8641,2.864,2.8664,2.8662,2.8767,2.8683,2.8682,2.8682,2.8682,0,2.7963,2.8022,2.8068,2.8111,2.8179,2.8206,2.8272,2.8303,2.8347,2.8398,2.841,2.8458,2.8492,2.8545,2.8568,2.864,2.8654,2.8671,2.8677,2.867,2.8669,2.8692,2.8688,2.8685,2.8685,2.8684,2.8684,0,2.8021,2.8053,2.8131,2.819,2.8207,2.8254,2.8305,2.8348,2.8376,2.844,2.8457,2.8501,2.8564,2.8597,2.8675,2.8691,2.8773,2.8775,2.8755,2.8758,2.8799,2.8795,2.8923,2.8942,2.8844,2.8845,2.8846,0,2.8069,2.8115,2.8179,2.8214,2.8245,2.8301,2.8338,2.8368,2.8407,2.847,2.8507,2.857,2.8623,2.8724,2.8763,2.8824,2.8828,2.8869,2.8838,2.8831,2.8831,2.8828,2.8834,2.8875,2.8876,2.8877,2.8877,0,2.8152,2.8166,2.822,2.828,2.8324,2.8373,2.8421,2.8449,2.8486,2.853,2.8594,2.8635,2.8716,2.878,2.8845,2.8877,2.8884,2.8887,2.89,2.8895,2.8882,2.8891,2.8772,2.8884,2.8883,2.8883,2.8882,2.8882,2.8207,2.8249,2.8302,2.8362,2.8401,2.8447,2.8491,2.8525,2.8579,2.8648,2.8662,2.8731,2.8784,2.8871,2.8906,2.8961,2.8953,2.8972,2.8977,2.8981,2.8984,2.8873,2.8973,2.8973,2.8973,2.8973,2.8973,0,2.8292,2.8326,2.8381,2.8449,2.8496,2.8499,2.8553,2.8593,2.8653,2.8702,2.8754,2.883,2.8893,2.8938,2.9002,2.9038,2.9043,2.9054,2.9052,2.906,2.8987,2.8969,2.9049,2.9049,2.9049,2.9049,2.9049,2.9049,2.8341,2.8413,2.8435,2.8528,2.8563,2.863,2.8661,2.8704,2.8743,2.8827,2.8879,2.8908,2.8957,2.9025,2.9084,2.9095,2.9119,2.913,2.9142,2.9073,2.9065,2.9057,2.9041,2.9135,2.9135,2.9211,2.9212,2.9213]}]]